Reflectivity
-20 -20 -20 -20 -20 -20 -20 -20 -20 -20 -20 -20 -20 -20 -20 -20 -20 -20 -20 -20 -20 -20 -20 -20 -20 -20 2 15 45 31 27 12
-20 -20 -20 -20 -20 -20 -20 -20 -20 -20 -20 -20 -20 -20 -20 -20 -20 -20 -20 -20 -20 -20 -20 -20 -20 -20 -20 -10 29 24 7 21
-20 -20 -20 -20 -20 -20 -20 -20 -20 -20 -20 -20 -20 -20 -20 -20 -20 -20 -20 -20 -20 -20 -20 -20 -20 -20 -20 -15 -17 -0 28 36
-20 -20 -20 -20 -20 -20 -20 -20 -20 -20 -20 -20 -20 -20 -20 -20 -20 -20 -20 -20 -20 -20 -20 -20 -20 -20 -20 -20 -3 -20 15 35
-20 -20 -20 -20 -20 -20 -20 -20 -20 -20 -20 -20 -20 -20 -20 -20 -20 -20 -20 -20 -20 -20 -20 -20 -20 -20 -20 -20 -20 14 7 15
-20 -20 -20 -20 -20 -20 -20 -20 -20 -20 -20 -20 -20 -20 -20 -20 -20 -20 -20 -20 -20 -20 -20 -20 -20 -20 -20 -20 -20 -19 5 -20
-20 -20 -20 -20 -20 -20 -20 -7 -20 -20 -20 -20 -20 -20 -20 -20 -20 -20 -20 -20 -20 -20 -20 -20 -20 -20 -19 -15 7 -14 8 -20
-20 -20 -20 -20 -20 -20 -20 -20 -20 -20 -20 -0 -20 -4 -5 -7 -17 4 3 -20 -20 -20 -20 -16 -19 -20 -20 -20 -20 -20 -13 21
-20 -20 -20 -20 -20 -20 -20 -20 -20 -20 -20 -8 -20 -2 -13 9 7 8 9 6 4 1 -11 10 3 -20 -18 -2 -20 -20 -20 0
-20 -20 -20 -20 -20 -20 -20 -20 -20 -18 -19 -20 -20 -20 10 11 4 7 10 5 9 11 15 8 6 12 -20 -14 -5 -17 -20 0
-20 -20 -20 -20 -20 -20 -20 -20 -20 -20 -0 -20 -12 -20 15 6 8 15 16 13 17 21 23 22 8 10 1 8 10 2 -16 -20
-20 -20 -20 -20 -20 -20 -20 -20 -20 -20 -20 -19 -5 6 15 15 17 24 13 18 18 24 23 19 18 17 13 6 9 4 3 2
-20 -20 -20 -20 -20 -20 -20 -19 -17 -20 -20 8 17 19 18 18 20 12 8 7 18 21 23 20 16 18 16 15 8 16 15 9
-20 -20 -20 -20 -20 -12 -13 8 -14 -20 -5 14 20 20 17 14 18 18 11 2 7 17 24 25 21 21 22 20 18 15 -1 5
-20 -20 -20 -20 -16 6 8 2 -20 -20 -20 -1 14 16 20 24 24 20 20 10 -2 3 11 17 24 24 22 23 24 19 18 6
-20 -20 -20 -10 3 10 8 -19 -20 -20 -15 -8 7 4 3 4 8 15 18 5 12 12 -1 -5 5 6 12 7 11 3 10 14
-20 -20 -20 -7 -17 -10 -20 -20 -18 -20 -18 -20 -20 -20 -3 -3 -9 -5 -8 3 -6 -20 -18 -17 -15 1 -13 2 16 16 14 15
-20 -20 -20 -20 -20 -20 -20 -20 -20 -20 -20 -20 -20 -20 -20 -20 -20 -20 -20 -12 -7 -13 -20 -19 -16 -5 -1 -13 -1 11 8 6
-20 -20 -20 -20 -20 -20 -20 -20 -20 -20 -20 -20 -20 -20 -20 -20 -20 -20 -20 -20 -20 -20 -20 -20 -20 -20 -20 -20 -20 -15 3 18
Wind_Speed
10 11 11 10 9 11 11 11 13 13 9 10 7 6 6 7 6 7 9 6 9 6 5 5 6 10 10 6 9 6 6 9
7 9 10 11 11 12 12 12 12 11 9 11 8 8 10 6 7 8 8 9 8 7 5 6 6 6 9 9 11 8 6 9
11 12 12 12 13 14 14 13 12 11 8 8 6 8 6 9 7 8 9 8 9 9 8 7 7 7 9 10 11 10 12 11
9 11 10 10 12 13 13 14 12 13 13 9 7 7 7 7 8 9 8 10 11 10 9 8 8 6 8 9 10 17 14 15
8 10 11 11 11 9 12 13 14 12 13 11 14 12 13 11 10 10 10 12 11 11 11 10 10 8 10 9 10 12 14 15
10 10 10 9 10 11 11 12 12 15 14 14 11 13 10 9 11 16 14 11 10 11 10 10 10 8 10 10 11 12 13 13
7 8 9 11 10 10 11 12 12 13 12 14 15 15 15 13 14 13 9 8 8 10 12 10 10 10 12 11 10 14 15 17
7 11 10 11 12 12 12 14 14 14 15 13 14 14 15 13 14 11 12 9 8 9 11 11 9 12 11 11 11 11 12 11
6 9 8 11 12 13 15 15 17 17 16 15 14 15 10 10 11 11 9 9 9 11 11 12 13 13 12 12 8 10 12 10
6 7 8 10 12 12 13 15 15 16 16 13 14 14 14 12 13 12 8 11 10 11 11 12 12 11 13 11 8 12 8 8
6 6 7 8 9 9 10 11 13 14 15 14 13 14 13 13 12 13 12 11 12 11 11 10 10 13 12 10 7 10 9 8
4 5 6 7 8 9 10 12 13 14 14 14 14 14 15 14 13 13 14 12 13 13 12 12 12 12 10 7 10 10 10 9
2 4 6 6 7 9 11 11 12 13 14 13 14 14 16 15 15 16 15 15 13 14 13 14 15 14 13 13 12 9 6 6
3 4 5 5 7 9 10 11 12 12 13 12 14 16 15 16 16 16 16 16 15 15 16 17 18 17 16 15 14 15 15 14
2 3 5 6 8 9 9 10 11 11 12 12 14 15 15 15 15 16 16 17 17 17 16 17 19 19 19 18 18 17 17 17
4 4 4 6 7 9 9 9 9 10 10 12 13 12 13 13 14 15 16 16 16 16 19 20 19 19 17 18 19 20 19 18
4 4 6 8 8 8 9 9 9 9 10 11 12 13 13 14 15 15 15 16 17 18 20 21 21 16 32 32 23 19 20 20
5 4 5 5 6 8 8 8 7 9 10 11 13 13 14 14 13 13 15 16 15 19 19 20 21 20 32 31 30 18 18 19
6 4 4 4 4 5 7 8 8 10 11 12 13 13 13 13 14 15 15 13 16 17 18 19 19 21 34 31 29 18 18 21
Wind_Direction
14 12 9 6 6 4 360 356 354 349 341 338 331 322 351 315 342 320 318 330 332 341 329 307 314 315 290 169 263 258 220 230
8 8 5 2 5 2 359 353 352 352 350 347 345 333 329 328 321 311 345 327 320 327 313 304 298 292 303 258 215 249 265 252
1 1 1 2 355 354 353 350 345 349 346 336 314 313 309 310 310 326 313 318 318 307 304 289 297 297 287 298 227 225 231 254
355 356 356 354 356 347 347 341 347 347 341 333 324 313 308 313 319 313 312 309 303 293 288 287 286 286 279 273 274 214 212 232
355 353 354 354 346 335 344 341 353 337 339 334 334 324 320 317 308 304 303 304 296 289 288 283 275 274 265 270 267 251 218 219
348 350 345 334 343 349 346 339 338 342 339 333 326 319 310 307 307 303 304 299 287 276 273 280 276 267 272 272 272 267 227 221
350 344 336 350 343 353 337 347 342 338 338 327 327 318 317 316 311 306 296 295 294 274 264 256 264 264 263 260 260 255 260 224
342 355 349 348 347 350 342 348 342 342 342 330 328 319 318 311 311 304 305 297 283 275 273 273 265 268 267 271 273 275 278 254
344 353 346 349 347 347 348 348 346 346 344 340 335 330 323 319 316 313 306 304 301 296 272 265 265 265 259 261 263 268 273 274
344 355 352 347 347 341 342 344 347 347 341 340 340 336 331 335 331 327 323 317 317 317 304 288 262 267 252 240 247 255 267 286
345 348 344 339 334 335 338 341 349 345 341 349 346 344 342 350 347 343 336 340 341 334 331 322 300 274 237 236 240 252 249 251
332 337 333 328 330 342 343 351 352 353 349 347 352 353 354 2 357 354 353 345 357 357 359 1 358 4 355 278 237 239 242 251
340 323 325 336 340 349 350 351 358 358 353 350 1 358 6 4 2 359 355 360 3 10 13 20 19 15 18 12 3 330 271 281
0 356 343 339 350 352 351 359 3 359 359 356 8 7 5 3 3 4 5 7 6 17 25 28 30 27 27 27 26 31 32 33
20 2 353 3 5 355 355 3 5 4 4 8 16 7 2 5 3 5 8 11 13 22 25 33 36 35 34 34 34 35 38 32
54 21 359 19 15 360 3 7 7 6 11 18 20 11 9 11 11 13 17 18 20 23 30 33 35 40 37 39 42 39 36 38
93 54 40 29 18 10 9 9 9 14 19 22 21 17 15 16 15 16 19 24 27 28 31 33 32 34 39 42 47 47 41 37
110 77 55 35 21 10 14 12 13 25 30 26 25 20 19 15 15 17 22 26 27 35 33 36 37 38 39 43 44 44 42 40
120 93 75 36 19 13 30 26 27 34 34 32 30 22 20 14 18 20 22 23 29 32 33 32 35 35 37 36 39 43 41 39